When you browse on this site, cookies collect data to enhance your experience and personalize the content and advertising you see.
Visit our Privacy Policy to learn more. By continuing to use the site, you agree to this use of cookies and data.
  • In Austria
  • List of Countries
  • For 7 days
  • Water Temperature
  • Weather Map
  • News
  • Weather Widgets
  • user-avatar
    Login

    Hourly Weather Tlaxcoapan

    Today, 8 December, Sunday

    Time Temperature Precipitation Wind Pressure Humidity
    00:00 +12°C° 0 mm 1 mps 596 mmHg 85%
    01:00 +12°C° 0 mm 1 mps 596 mmHg 85%
    02:00 +12°C° 0 mm 1 mps 595 mmHg 84%
    03:00 +11°C° 0 mm 1 mps 595 mmHg 85%
    04:00 +11°C° 0 mm 1 mps 595 mmHg 87%
    05:00 +10°C° 0 mm 1 mps 594 mmHg 88%
    06:00 +11°C° 0 mm 1 mps 595 mmHg 80%
    07:00 +13°C° 0 mm 1 mps 596 mmHg 71%
    08:00 +14°C° 0 mm 1 mps 597 mmHg 62%
    09:00 +18°C° 0 mm 1 mps 597 mmHg 51%
    10:00 +20°C° 0 mm 1 mps 598 mmHg 40%
    11:00 +22°C° 0 mm 1 mps 598 mmHg 29%
    12:00 +23°C° 0 mm 2 mps 598 mmHg 27%
    13:00 +24°C° 0 mm 2 mps 598 mmHg 24%
    14:00 +25°C° 0 mm 3 mps 597 mmHg 22%
    15:00 +22°C° 0 mm 3 mps 596 mmHg 26%
    16:00 +20°C° 0 mm 2 mps 596 mmHg 31%
    17:00 +18°C° 0 mm 2 mps 595 mmHg 35%
    18:00 +17°C° 0 mm 2 mps 595 mmHg 40%
    19:00 +16°C° 0 mm 1 mps 595 mmHg 45%
    20:00 +15°C° 0 mm 1 mps 595 mmHg 50%
    21:00 +14°C° 0 mm 1 mps 595 mmHg 51%
    22:00 +14°C° 0 mm 1 mps 594 mmHg 53%
    23:00 +13°C° 0 mm 1 mps 594 mmHg 54%

    Tomorrow, 9 December, Monday

    Time Temperature Precipitation Wind Pressure Humidity
    00:00 +13°C° 0 mm 1 mps 594 mmHg 54%
    01:00 +12°C° 0 mm 1 mps 593 mmHg 53%
    02:00 +12°C° 0 mm 1 mps 593 mmHg 52%
    03:00 +12°C° 0 mm 1 mps 593 mmHg 53%
    04:00 +11°C° 0 mm 1 mps 593 mmHg 53%
    05:00 +11°C° 0 mm 1 mps 593 mmHg 54%
    06:00 +13°C° 0 mm 1 mps 594 mmHg 48%
    07:00 +15°C° 0 mm 1 mps 595 mmHg 43%
    08:00 +18°C° 0 mm 1 mps 596 mmHg 37%
    09:00 +20°C° 0 mm 1 mps 596 mmHg 31%
    10:00 +22°C° 0 mm 1 mps 596 mmHg 26%
    11:00 +22°C° 0 mm 0 mps 597 mmHg 20%
    12:00 +25°C° 0 mm 1 mps 596 mmHg 18%
    13:00 +25°C° 0 mm 1 mps 596 mmHg 17%
    14:00 +26°C° 0 mm 1 mps 596 mmHg 15%
    15:00 +24°C° 0 mm 1 mps 595 mmHg 19%
    16:00 +22°C° 0 mm 1 mps 595 mmHg 23%
    17:00 +19°C° 0 mm 2 mps 594 mmHg 27%
    18:00 +19°C° 0 mm 1 mps 594 mmHg 31%
    19:00 +18°C° 0 mm 1 mps 594 mmHg 34%
    20:00 +16°C° 0 mm 1 mps 594 mmHg 38%
    21:00 +16°C° 0 mm 1 mps 594 mmHg 43%
    22:00 +15°C° 0 mm 1 mps 593 mmHg 48%
    23:00 +14°C° 0 mm 1 mps 593 mmHg 54%

    Day after tomorrow, 10 December, Tuesday

    Time Temperature Precipitation Wind Pressure Humidity
    00:00 +14°C° 0 mm 1 mps 593 mmHg 59%
    01:00 +14°C° 0 mm 1 mps 593 mmHg 65%
    02:00 +13°C° 0 mm 1 mps 593 mmHg 70%
    03:00 +13°C° 0 mm 1 mps 592 mmHg 72%
    04:00 +12°C° 0 mm 1 mps 592 mmHg 75%
    05:00 +12°C° 0 mm 1 mps 592 mmHg 77%
    06:00 +13°C° 0 mm 1 mps 593 mmHg 71%
    07:00 +15°C° 0 mm 1 mps 594 mmHg 64%
    08:00 +16°C° 0 mm 1 mps 595 mmHg 57%
    09:00 +19°C° 0 mm 1 mps 596 mmHg 50%
    10:00 +21°C° 0 mm 1 mps 596 mmHg 44%
    11:00 +23°C° 0 mm 1 mps 596 mmHg 37%
    12:00 +23°C° 0 mm 1 mps 596 mmHg 34%
    13:00 +24°C° 0 mm 1 mps 596 mmHg 30%
    14:00 +25°C° 0 mm 1 mps 596 mmHg 26%
    15:00 +23°C° 0 mm 1 mps 596 mmHg 30%
    16:00 +21°C° 0 mm 2 mps 596 mmHg 33%
    17:00 +19°C° 0 mm 2 mps 596 mmHg 37%
    18:00 +18°C° 0 mm 2 mps 596 mmHg 52%
    19:00 +16°C° 0 mm 2 mps 596 mmHg 66%
    20:00 +14°C° 0 mm 3 mps 596 mmHg 81%
    21:00 +14°C° 0 mm 2 mps 596 mmHg 85%
    22:00 +14°C° 0 mm 1 mps 596 mmHg 88%
    23:00 +13°C° 0 mm 1 mps 596 mmHg 92%

    11 December, Wednesday

    Time Temperature Precipitation Wind Pressure Humidity
    00:00 +13°C° 0 mm 1 mps 596 mmHg 93%
    01:00 +13°C° 0 mm 1 mps 596 mmHg 93%
    02:00 +12°C° 0 mm 1 mps 595 mmHg 93%
    03:00 +12°C° 0 mm 1 mps 596 mmHg 92%
    04:00 +12°C° 0 mm 2 mps 596 mmHg 91%
    05:00 +12°C° 0 mm 2 mps 596 mmHg 90%
    06:00 +12°C° 0 mm 2 mps 596 mmHg 86%
    07:00 +13°C° 0 mm 2 mps 597 mmHg 82%
    08:00 +13°C° 0 mm 2 mps 597 mmHg 79%
    09:00 +14°C° 0 mm 2 mps 597 mmHg 73%
    10:00 +14°C° 0 mm 2 mps 597 mmHg 68%
    11:00 +15°C° 0 mm 2 mps 597 mmHg 63%
    12:00 +16°C° 0 mm 3 mps 597 mmHg 59%
    13:00 +17°C° 0 mm 3 mps 597 mmHg 55%
    14:00 +18°C° 0 mm 3 mps 596 mmHg 51%
    15:00 +17°C° 0 mm 3 mps 596 mmHg 57%
    16:00 +14°C° 0 mm 3 mps 595 mmHg 63%
    17:00 +13°C° 0 mm 3 mps 595 mmHg 68%
    18:00 +13°C° 0 mm 2 mps 595 mmHg 73%
    19:00 +12°C° 0 mm 1 mps 595 mmHg 77%
    20:00 +11°C° 0 mm 1 mps 595 mmHg 81%
    21:00 +11°C° 0 mm 1 mps 595 mmHg 84%
    22:00 +9°C° 0 mm 0 mps 595 mmHg 86%
    23:00 +9°C° 0 mm 0 mps 595 mmHg 88%

    12 December, Thursday

    Time Temperature Precipitation Wind Pressure Humidity
    00:00 +9°C° 0 mm 0 mps 594 mmHg 88%
    01:00 +9°C° 0 mm 0 mps 594 mmHg 87%
    02:00 +10°C° 0 mm 1 mps 594 mmHg 87%
    03:00 +10°C° 0 mm 1 mps 594 mmHg 86%
    04:00 +10°C° 0 mm 1 mps 594 mmHg 85%
    05:00 +10°C° 0 mm 1 mps 593 mmHg 85%
    06:00 +12°C° 0 mm 1 mps 595 mmHg 76%
    07:00 +13°C° 0 mm 1 mps 596 mmHg 68%
    08:00 +15°C° 0 mm 1 mps 597 mmHg 59%
    09:00 +18°C° 0 mm 1 mps 597 mmHg 51%
    10:00 +21°C° 0 mm 1 mps 598 mmHg 42%
    11:00 +23°C° 0 mm 1 mps 598 mmHg 34%
    12:00 +23°C° 0 mm 1 mps 598 mmHg 34%
    13:00 +23°C° 0 mm 2 mps 597 mmHg 33%
    14:00 +24°C° 0 mm 3 mps 597 mmHg 33%
    15:00 +21°C° 0 mm 2 mps 596 mmHg 38%
    16:00 +20°C° 0 mm 2 mps 596 mmHg 43%
    17:00 +20°C° 0 mm 1 mps 596 mmHg 48%
    18:00 +19°C° 0 mm 1 mps 596 mmHg 52%
    19:00 +18°C° 0 mm 1 mps 596 mmHg 55%
    20:00 +15°C° 0 mm 0 mps 596 mmHg 59%
    21:00 +15°C° 0 mm 0 mps 596 mmHg 61%
    22:00 +14°C° 0 mm 0 mps 596 mmHg 62%
    23:00 +14°C° 0 mm 0 mps 595 mmHg 64%

    13 December, Friday

    Time Temperature Precipitation Wind Pressure Humidity
    00:00 +14°C° 0 mm 1 mps 595 mmHg 65%
    01:00 +14°C° 0 mm 1 mps 595 mmHg 66%
    02:00 +14°C° 0 mm 1 mps 594 mmHg 67%
    03:00 +13°C° 0 mm 1 mps 595 mmHg 68%
    04:00 +13°C° 0 mm 1 mps 595 mmHg 70%
    05:00 +13°C° 0 mm 1 mps 595 mmHg 71%
    06:00 +14°C° 0 mm 1 mps 595 mmHg 66%
    07:00 +15°C° 0 mm 1 mps 596 mmHg 61%
    08:00 +16°C° 0 mm 1 mps 597 mmHg 56%
    09:00 +19°C° 0 mm 1 mps 597 mmHg 51%
    10:00 +20°C° 0 mm 1 mps 597 mmHg 46%
    11:00 +21°C° 0 mm 1 mps 598 mmHg 41%
    12:00 +22°C° 0 mm 1 mps 597 mmHg 38%
    13:00 +23°C° 0 mm 2 mps 597 mmHg 34%
    14:00 +23°C° 0 mm 2 mps 596 mmHg 31%
    15:00 +21°C° 0 mm 3 mps 596 mmHg 40%
    16:00 +19°C° 0 mm 3 mps 595 mmHg 48%
    17:00 +17°C° 0 mm 3 mps 594 mmHg 57%
    18:00 +16°C° 0 mm 2 mps 594 mmHg 64%
    19:00 +15°C° 0 mm 1 mps 594 mmHg 72%
    20:00 +14°C° 0 mm 1 mps 594 mmHg 80%
    21:00 +13°C° 0 mm 1 mps 594 mmHg 80%
    22:00 +13°C° 0 mm 1 mps 594 mmHg 79%
    23:00 +12°C° 0 mm 1 mps 594 mmHg 79%
    Show more